Theta_e
340 340 340 339 339 338 337 337 337 335 334 333 333 332 329 329 331 331 330 328 327 327 327 327 326 326 326 326 327 326 325 324 321 318 315 313 312 308 306 306 307 306 304 304 304 304 303 304 308 309 308 309 309 307 306 303 301 304 307 306 305 304 305 305 305 305 304 302 299 296 295 295 295 295
341 340 340 339 338 338 337 337 336 335 334 333 332 332 331 329 329 330 330 329 328 327 327 327 327 326 326 326 326 325 325 324 322 318 315 314 312 308 307 308 307 306 306 306 306 306 305 305 308 310 309 310 310 308 306 303 302 304 303 301 301 302 303 303 303 302 300 297 296 296 296 296 296 296
340 340 339 339 338 338 337 336 336 335 334 333 332 332 331 329 329 328 328 329 328 327 327 327 327 327 327 326 326 325 325 323 322 319 316 315 312 308 309 310 308 307 307 308 308 307 307 308 310 310 310 311 311 309 307 303 300 298 296 297 300 303 304 303 303 303 300 299 299 300 299 298 296 296
340 339 338 338 337 337 337 336 335 334 333 332 333 332 331 330 330 329 327 327 328 327 327 327 327 327 327 326 325 325 324 323 321 319 316 315 311 309 310 310 310 309 308 309 309 308 308 309 311 311 310 311 311 309 307 305 300 294 294 299 302 304 304 304 304 304 303 302 302 302 302 299 297 298
340 338 337 337 337 337 337 336 335 333 332 331 331 332 331 331 330 329 327 327 327 326 325 326 326 326 326 326 324 324 323 323 322 319 316 314 312 311 311 311 311 309 308 308 309 309 308 308 309 310 310 310 310 310 308 306 304 297 294 298 301 302 302 302 301 301 301 301 301 300 300 299 298 300
340 338 337 337 337 337 337 336 335 333 331 330 330 331 331 331 330 329 327 327 326 325 324 325 325 325 325 325 324 324 323 322 321 319 316 314 312 312 311 311 311 310 308 308 308 309 309 308 308 308 307 307 308 310 308 307 307 301 295 295 298 299 299 298 297 297 297 297 297 297 297 298 299 300
340 338 338 337 337 337 337 335 334 332 330 329 330 330 331 331 330 329 328 327 326 324 323 324 325 325 324 323 323 323 322 322 321 319 316 313 312 312 311 310 311 310 309 309 308 308 308 308 308 307 307 306 306 307 307 307 308 303 295 294 296 296 296 296 295 296 296 296 297 296 296 298 301 301
339 338 337 337 337 336 336 334 332 331 330 329 329 330 331 331 331 330 329 328 327 325 324 323 323 324 323 321 321 320 319 319 319 319 316 313 312 313 311 310 310 310 311 310 309 309 308 308 308 308 307 306 304 304 305 307 308 303 295 295 295 295 295 295 295 296 296 296 297 296 294 296 301 301
338 338 338 337 337 336 334 333 331 329 329 329 329 330 330 330 330 330 329 328 328 327 325 323 321 321 321 319 318 318 318 317 316 316 315 313 313 313 312 311 310 310 311 310 310 309 309 308 308 308 307 304 301 301 304 307 308 301 296 296 296 295 295 295 296 296 296 296 296 295 293 295 300 302
338 337 338 337 336 335 333 331 329 328 328 329 329 329 329 329 329 329 328 328 327 326 325 323 320 318 318 317 317 318 319 318 316 314 312 312 312 313 312 311 310 310 311 310 310 310 309 309 308 308 306 302 300 301 303 306 305 298 295 296 296 296 295 295 295 296 296 296 296 295 294 295 300 301
338 337 337 337 336 334 331 329 328 328 327 327 327 326 326 327 327 327 327 327 326 325 324 322 320 318 317 317 317 317 317 317 316 314 312 311 311 312 312 312 311 311 311 310 310 310 310 309 308 308 306 302 300 301 301 303 302 297 296 297 296 296 296 295 295 295 296 297 297 297 296 296 299 300
338 337 337 336 335 332 329 328 328 327 326 326 325 324 324 325 326 326 326 326 326 325 324 321 319 318 316 316 316 315 314 313 314 314 312 311 312 313 313 313 312 312 312 311 311 311 310 310 309 308 306 302 300 300 301 301 300 297 297 297 296 297 296 296 295 295 296 297 297 297 297 296 298 298
338 337 336 335 333 331 329 328 328 327 325 324 324 324 324 324 325 325 325 325 325 324 322 320 319 317 316 316 315 313 312 313 313 313 312 312 313 313 313 313 312 313 313 313 312 311 311 310 309 308 306 302 300 300 300 300 298 297 298 298 297 297 296 296 296 295 296 297 297 297 297 296 296 296
338 337 334 332 331 329 328 328 327 326 324 323 322 323 324 324 324 324 324 324 324 324 322 320 318 317 316 316 316 315 314 314 314 313 313 313 313 313 313 313 313 313 314 313 313 312 311 311 309 308 306 304 301 300 300 299 298 298 298 298 299 298 297 296 297 295 295 297 297 297 296 295 295 295
337 335 332 330 329 328 328 327 326 325 322 321 321 321 322 322 322 322 322 322 323 323 322 320 319 318 317 317 317 316 315 314 314 314 314 313 314 313 313 313 313 313 314 313 313 312 311 310 309 308 307 306 304 302 301 300 298 298 298 298 299 298 297 296 296 296 295 296 297 296 295 295 295 295
337 334 331 329 329 328 327 326 326 323 321 320 319 319 319 319 319 320 320 320 321 321 321 320 319 319 319 318 317 317 317 315 314 314 314 314 314 314 314 314 313 313 313 313 312 311 310 309 308 308 307 306 306 305 305 304 301 299 298 299 299 299 298 297 296 295 295 296 296 296 295 295 294 294
336 334 331 330 328 328 327 326 325 323 320 318 318 319 318 317 317 317 317 318 319 319 320 320 320 320 319 319 319 318 318 317 315 314 314 315 315 315 315 314 313 313 312 312 311 309 308 308 307 306 306 306 306 307 306 306 305 302 300 299 299 299 298 297 296 295 295 295 296 296 295 295 294 294
335 333 332 330 328 327 326 325 323 322 319 318 318 318 317 316 316 316 317 317 317 318 318 319 319 319 319 319 319 319 319 318 317 316 316 316 315 315 314 313 312 312 311 311 310 305 303 305 305 303 302 303 304 305 305 306 306 305 302 300 299 299 298 296 296 295 294 295 296 295 294 294 293 293
335 332 331 329 327 326 325 324 323 322 320 319 318 316 315 315 316 316 316 317 316 317 317 317 318 318 318 318 318 318 318 318 318 318 318 317 315 314 312 310 310 310 309 310 309 303 299 301 302 300 299 300 301 302 304 304 305 305 304 301 300 299 298 296 296 295 294 295 295 294 293 293 292 291
333 331 329 327 326 325 324 323 322 320 319 319 317 315 313 313 314 315 315 315 315 315 315 315 315 315 316 316 316 316 316 316 316 317 316 315 314 312 309 307 308 309 307 307 307 302 297 299 300 298 298 299 300 300 302 303 303 304 303 302 299 298 297 296 295 295 294 294 293 293 292 292 291 290
331 329 327 326 325 324 323 323 321 319 318 317 316 314 313 313 313 312 313 312 312 312 313 313 312 312 313 313 314 315 315 314 314 315 314 313 312 309 306 304 305 306 305 303 304 302 298 298 299 297 296 298 298 298 299 300 300 301 300 299 298 296 295 294 294 293 293 292 292 292 292 291 290 290
328 327 326 325 324 324 323 322 319 318 317 316 315 313 313 312 312 311 310 310 310 310 311 311 311 311 311 311 312 313 313 312 312 313 313 312 310 308 306 304 302 303 302 301 302 301 297 297 298 297 295 295 294 294 295 296 296 296 296 295 294 293 293 292 292 292 291 291 291 291 290 290 289 289
326 326 325 324 324 323 322 321 318 317 317 316 315 313 312 311 311 310 310 309 309 310 310 310 310 310 310 310 310 311 311 311 310 311 312 311 310 308 306 304 302 302 301 300 301 300 297 297 298 297 296 293 290 290 292 292 292 292 292 292 292 291 291 291 290 290 290 290 290 289 289 289 288 288
325 325 324 323 322 322 321 319 318 317 316 316 314 313 313 312 310 310 309 309 309 310 309 309 309 308 308 308 309 309 310 309 309 309 310 309 309 309 307 304 303 302 301 300 300 300 298 297 297 297 297 295 291 289 289 290 290 290 290 291 291 290 290 289 289 289 289 289 289 288 288 288 288 287
324 323 323 321 321 320 319 318 318 317 316 315 314 313 313 311 310 310 309 308 308 308 307 306 305 305 305 306 307 308 308 308 307 307 307 307 307 308 307 304 302 301 300 299 300 300 299 298 297 297 297 295 290 288 288 289 289 289 289 290 290 289 288 288 288 288 289 288 288 288 288 288 287 287
322 321 320 320 320 320 318 318 318 317 316 314 313 313 312 310 309 309 308 307 306 306 305 304 304 304 304 304 305 306 306 306 306 306 305 305 304 304 304 303 302 301 300 300 299 300 299 299 298 298 297 293 290 288 288 287 288 288 288 288 288 287 287 287 287 288 288 288 288 288 288 288 287 287
321 320 319 319 319 319 318 318 317 316 315 313 313 313 311 309 308 308 307 306 304 303 303 304 304 304 304 304 304 304 304 304 304 304 303 303 302 302 301 301 301 300 299 299 299 299 299 299 299 298 297 295 291 288 286 286 287 287 287 286 286 286 286 286 286 287 287 287 287 287 287 287 287 286
321 320 320 320 319 318 318 317 316 315 314 313 313 313 310 308 307 306 305 303 302 302 303 304 304 303 304 304 304 303 303 302 302 302 302 301 301 301 300 300 299 298 298 298 297 297 297 298 298 297 297 297 294 290 288 287 286 286 286 285 285 285 285 285 285 285 286 285 285 285 286 286 286 285
322 321 320 320 319 318 317 316 315 314 313 313 314 313 310 307 306 304 302 301 301 301 303 304 303 303 303 303 303 302 302 302 301 301 300 299 299 299 298 298 297 297 297 297 297 297 297 297 297 297 296 296 295 294 292 289 286 285 286 285 285 285 284 284 284 284 284 284 284 284 284 284 284 283
323 322 321 321 320 319 317 316 315 314 314 314 313 312 309 306 304 302 301 300 300 301 302 303 303 303 302 302 301 301 301 300 300 299 298 297 297 297 297 297 297 297 297 297 296 296 296 297 297 297 296 295 295 294 293 290 287 285 285 285 285 285 284 284 283 283 283 283 283 283 283 283 282 281
323 323 321 321 321 320 318 316 315 314 314 314 312 310 308 306 303 302 301 300 299 300 301 302 302 302 302 300 300 299 299 298 297 297 297 297 297 297 297 297 297 297 296 296 295 295 295 296 297 296 295 295 294 293 292 290 288 286 285 285 285 285 284 284 283 283 282 282 282 282 282 282 281 281
323 322 321 320 320 319 317 315 314 314 314 313 311 310 308 304 302 302 301 300 300 300 300 301 301 301 301 300 299 298 297 297 297 297 297 298 298 298 298 297 296 295 294 294 293 293 293 293 294 293 292 292 293 292 291 289 288 287 286 285 284 284 284 283 282 282 282 282 281 281 281 281 280 280
321 319 319 318 317 316 314 313 313 313 313 311 310 309 307 303 302 302 302 300 300 300 300 300 301 300 300 299 298 297 297 296 297 297 298 298 298 298 298 296 294 293 293 292 291 291 291 291 291 290 290 290 290 290 289 288 287 286 286 285 284 284 283 282 282 281 281 281 281 280 280 280 280 279
320 317 316 315 314 313 313 312 311 311 311 310 309 307 304 302 302 303 303 301 300 300 300 300 300 300 300 299 297 296 296 297 297 297 297 298 298 297 297 296 293 292 292 292 291 290 290 290 289 289 289 289 288 288 288 288 287 286 285 285 284 284 283 282 282 281 281 280 280 280 280 280 280 280
317 316 314 313 312 311 311 310 309 309 310 309 307 305 302 302 303 304 303 302 302 301 301 301 301 301 301 300 298 298 298 298 298 298 298 298 297 297 297 295 293 291 291 291 290 290 289 289 288 288 288 288 287 287 287 287 287 286 285 284 284 284 283 283 282 282 281 280 280 280 280 280 281 281
315 314 313 311 308 307 308 307 308 308 309 308 306 304 302 303 304 305 305 304 303 303 302 302 302 302 302 301 300 300 300 300 299 298 298 297 296 296 295 294 292 291 291 290 289 289 288 288 288 287 287 287 287 287 286 286 285 285 284 284 283 283 283 283 282 282 281 281 281 280 280 280 281 281
314 312 311 309 307 306 307 308 308 308 307 306 304 303 303 304 305 306 306 306 305 304 303 303 302 302 302 301 301 300 299 299 299 299 298 296 295 295 294 292 291 290 289 289 288 288 287 287 287 287 287 287 287 287 286 285 285 284 284 284 283 283 283 282 282 282 282 282 282 281 281 281 281 281
314 311 309 308 307 307 308 308 307 307 306 305 304 304 305 305 306 307 307 306 306 305 304 303 303 302 301 301 300 299 298 298 298 298 297 297 296 294 293 291 290 289 288 287 287 286 286 286 286 286 286 285 285 285 285 284 284 284 284 283 283 283 283 282 282 282 282 282 282 282 281 281 281 281
313 311 309 308 308 307 308 307 307 306 306 305 306 306 307 307 307 307 307 306 306 305 304 303 302 301 301 300 298 298 298 298 298 297 297 296 296 294 292 290 289 288 287 287 286 286 285 285 285 285 284 284 284 284 284 283 283 283 283 283 283 282 282 282 282 282 281 281 281 281 281 281 281 281
311 310 309 308 308 307 307 307 306 306 306 306 307 307 307 307 307 306 305 305 304 303 302 301 301 300 299 298 298 298 299 298 297 297 296 296 295 293 291 290 288 288 287 287 286 286 286 285 285 285 284 284 284 283 283 283 283 283 283 282 282 282 281 281 281 281 281 281 281 281 281 281 281 281
310 309 308 308 307 307 307 307 306 306 307 307 307 307 307 306 305 304 304 303 303 302 301 300 300 299 298 298 298 299 299 297 296 296 295 295 293 291 290 289 288 288 287 287 286 286 285 285 285 284 284 284 283 283 283 283 283 283 282 282 282 281 281 281 281 281 281 281 280 280 280 280 281 281
308 308 307 307 307 307 307 307 306 306 307 307 307 306 305 304 303 303 302 301 301 301 300 299 298 298 298 299 299 298 297 296 295 295 294 293 292 290 289 289 288 288 287 287 286 286 285 285 284 284 284 283 283 283 283 282 282 282 282 282 281 281 281 281 281 281 281 280 280 280 280 280 281 281
308 308 307 306 306 307 307 307 307 306 306 306 306 305 303 302 301 301 301 301 300 300 299 298 298 299 299 298 298 297 296 296 295 294 293 292 291 290 289 288 288 287 287 286 286 285 285 285 284 284 283 283 282 282 282 282 282 282 281 281 281 281 281 281 281 281 280 280 280 280 279 280 280 280
309 309 308 307 306 306 306 306 306 306 306 305 304 302 301 301 301 301 301 300 300 299 298 298 299 299 298 297 297 297 296 294 293 292 291 290 290 289 289 288 287 287 286 285 285 285 284 284 284 283 283 282 282 282 282 282 281 281 281 281 281 281 281 281 281 280 280 280 280 279 279 279 279 279
309 309 308 307 306 305 305 305 305 305 305 304 302 301 301 301 301 300 300 300 299 299 299 299 299 298 297 297 297 296 294 292 291 290 289 289 289 288 287 287 286 286 285 284 284 284 284 283 283 283 282 282 282 282 281 281 281 281 281 281 281 280 280 279 279 279 279 280 279 279 278 278 278 278
Wind_Speed
11 12 12 14 15 14 14 14 14 13 12 13 15 15 14 12 5 2 4 5 7 10 13 15 16 18 19 19 19 22 22 21 20 17 14 12 11 10 11 11 10 8 7 7 6 5 4 5 7 6 5 6 5 4 4 4 5 8 8 8 9 10 11 11 11 10 10 10 10 10 10 11 11 11
12 13 12 13 14 13 11 11 10 10 8 9 10 11 13 15 11 6 3 4 6 9 12 16 17 18 21 21 21 21 21 21 21 18 14 12 11 12 13 12 10 9 9 8 7 6 5 5 6 6 4 6 7 6 4 5 5 6 7 8 10 11 10 10 10 10 9 10 10 10 10 10 11 11
12 13 12 12 14 12 9 8 8 7 6 6 7 8 10 14 17 14 7 3 5 8 12 16 18 17 20 23 23 22 22 23 21 19 15 13 12 13 14 12 11 10 10 9 8 6 6 6 5 4 2 4 8 8 6 5 4 4 6 9 11 12 11 10 10 10 9 9 9 9 9 9 10 10
12 12 11 11 11 10 9 9 7 5 4 4 6 8 9 13 16 17 13 6 4 8 10 13 16 16 17 22 25 24 23 24 22 20 16 14 14 15 14 13 12 11 11 9 7 6 5 5 5 4 2 3 7 9 8 5 3 3 7 10 12 13 12 11 10 10 9 9 9 9 9 8 9 9
12 12 10 9 7 7 9 9 8 5 3 4 6 8 10 13 14 15 16 11 6 7 8 10 13 15 16 20 23 25 25 25 24 21 18 16 16 15 15 14 13 12 11 10 7 5 5 5 5 5 4 4 6 9 9 6 2 3 7 10 11 12 12 10 10 9 9 9 9 9 9 8 8 9
13 11 8 6 5 5 7 8 8 6 3 3 6 8 11 14 14 14 15 13 9 7 7 8 11 14 16 19 21 25 27 26 26 24 22 20 18 16 15 15 14 12 12 10 8 6 5 4 4 5 5 5 6 7 8 7 2 2 6 9 10 10 9 8 8 8 8 8 9 10 10 9 9 10
12 9 6 4 4 4 6 7 7 6 5 5 6 8 11 13 14 14 15 14 12 9 8 9 11 13 17 19 20 24 26 26 27 26 24 23 20 17 16 16 15 13 12 11 9 7 6 5 4 4 4 5 7 8 8 7 4 3 7 9 10 9 8 8 8 8 8 9 10 10 10 10 9 10
9 6 5 4 3 3 4 5 5 5 6 7 8 9 11 12 13 13 14 15 14 11 9 10 12 13 16 18 19 23 25 25 27 27 25 23 21 19 18 17 16 14 12 11 9 8 7 5 5 4 4 5 6 7 8 8 6 5 9 11 10 9 9 8 9 8 8 9 9 9 10 11 11 11
7 4 4 4 3 3 4 4 4 5 5 6 7 8 9 10 12 12 13 15 15 13 11 11 11 12 15 16 17 21 25 25 25 26 25 24 22 20 19 19 17 16 14 12 11 9 7 6 6 5 4 4 5 6 9 9 7 7 11 12 10 10 9 9 9 8 9 9 9 9 9 11 12 11
7 4 3 4 4 4 4 3 3 5 4 4 5 6 6 8 10 11 12 13 15 14 12 11 11 12 15 16 15 19 23 25 25 25 24 23 22 21 20 20 18 17 15 13 12 10 8 7 7 6 5 4 4 6 10 10 8 9 12 12 11 10 10 10 9 9 9 9 9 9 8 10 12 10
6 4 5 5 5 4 3 2 4 6 5 5 5 6 7 8 9 10 11 12 13 13 12 11 11 12 14 15 15 17 21 22 23 25 24 23 22 22 21 21 20 18 16 15 13 12 10 9 8 7 6 5 4 6 9 11 10 10 12 12 12 11 10 10 10 9 9 10 10 9 7 9 11 10
7 6 6 7 6 5 3 3 5 5 5 5 6 6 7 8 10 11 12 12 12 12 12 11 11 12 13 13 13 16 19 20 19 22 25 25 24 24 22 22 20 18 17 16 15 14 13 11 10 8 7 6 5 7 9 12 12 11 12 12 12 11 11 10 10 10 10 11 11 9 7 8 10 9
8 7 7 6 6 4 3 3 5 5 4 5 5 5 5 6 8 10 11 12 12 12 12 10 10 12 13 13 15 18 22 22 19 21 23 22 23 23 22 21 20 18 16 16 16 15 14 13 11 10 8 6 6 7 10 12 13 13 13 12 10 11 12 12 10 11 12 12 11 10 8 8 9 8
10 9 7 6 3 3 4 4 6 6 5 4 5 5 4 4 5 6 7 9 10 12 12 12 12 14 14 16 18 19 21 20 18 20 22 20 19 19 18 17 19 18 16 15 16 16 15 14 13 11 9 7 7 7 9 11 12 13 13 12 10 10 12 13 12 12 14 13 11 10 8 8 8 7
12 11 10 8 3 4 6 6 7 8 7 6 6 5 4 4 5 6 6 6 8 10 11 12 14 15 15 17 18 18 18 19 18 19 22 21 19 19 17 13 14 18 18 16 15 15 15 14 13 12 10 9 9 8 9 10 11 13 13 12 11 11 12 14 13 13 15 14 12 10 9 8 7 7
14 13 12 9 5 4 6 7 8 8 8 7 7 6 5 5 5 5 5 5 6 8 9 11 14 15 15 16 18 18 18 19 19 17 20 23 22 22 22 18 14 16 18 17 14 13 13 13 12 11 11 11 11 11 11 11 12 13 14 13 13 13 13 14 14 14 15 15 12 10 9 7 7 7
14 13 12 10 8 7 8 9 10 10 10 10 8 6 5 5 5 5 4 4 4 6 7 10 12 13 13 14 16 17 18 18 19 19 20 23 24 23 24 21 16 13 15 16 14 10 8 9 10 9 8 9 11 12 13 14 15 14 15 14 14 14 14 14 14 14 15 15 12 10 9 8 8 8
14 13 13 12 11 10 10 11 11 12 12 11 8 7 6 5 5 4 3 3 2 3 4 6 8 9 10 11 12 14 16 18 19 20 20 22 24 23 20 16 12 10 13 16 14 9 6 8 9 6 4 5 7 8 9 12 15 16 15 15 14 14 14 14 13 13 14 14 13 11 9 9 9 9
14 14 13 12 11 11 11 12 12 12 12 10 8 7 6 5 5 4 3 3 2 2 2 2 3 5 7 8 8 10 14 17 17 18 19 20 22 21 15 11 10 11 13 16 13 9 9 9 10 10 7 5 4 3 3 5 9 13 14 13 13 14 13 13 12 11 12 13 12 10 10 9 9 10
14 13 12 11 11 11 11 12 13 13 12 10 8 8 7 6 6 5 5 4 4 3 3 3 3 4 4 5 5 7 10 14 16 16 15 16 18 17 12 9 9 12 14 14 13 12 13 11 12 14 11 8 8 7 5 6 5 7 9 10 11 12 12 11 10 11 12 12 10 9 9 9 10 10
13 12 11 11 11 11 12 13 14 13 12 10 9 9 8 8 8 8 8 8 7 7 6 6 5 5 4 3 4 5 7 9 12 14 14 16 18 17 14 10 8 12 13 11 13 15 16 14 14 16 14 10 11 11 9 8 7 6 7 8 9 10 10 10 10 10 10 9 8 8 9 10 11 11
13 12 12 11 11 12 14 15 15 14 12 10 9 9 9 10 11 11 11 10 9 9 8 7 7 7 6 6 6 6 6 5 7 10 12 16 19 18 15 12 11 11 11 12 14 16 17 16 16 16 14 12 12 13 12 11 10 10 11 10 11 10 9 9 8 8 7 7 7 8 9 9 10 10
13 12 13 12 12 13 15 17 16 14 11 10 10 10 10 12 12 12 11 9 8 8 7 6 6 6 6 6 6 7 8 7 6 5 7 13 18 17 17 18 15 8 8 14 16 16 18 17 14 12 9 7 9 10 12 13 12 12 13 12 12 11 10 9 7 6 6 6 7 7 8 8 9 9
15 14 13 12 12 13 15 16 15 13 11 10 10 9 10 11 12 12 10 8 6 5 5 5 5 5 6 6 7 8 9 8 6 3 5 12 14 12 15 19 14 7 9 15 16 15 17 15 10 8 6 5 7 9 10 12 13 12 12 12 11 10 9 8 7 7 7 6 7 7 7 7 8 9
15 14 13 12 13 14 15 15 14 13 11 10 9 8 8 8 11 12 10 8 6 5 6 6 6 6 7 7 7 8 7 7 6 5 7 10 8 7 12 16 13 10 12 14 13 13 15 14 11 8 7 9 11 11 10 11 12 12 11 10 9 9 7 7 8 9 8 8 7 7 7 8 8 9
14 13 12 13 14 15 16 16 14 13 11 10 9 8 7 8 10 10 9 8 8 8 8 8 9 8 8 9 9 9 8 9 9 8 8 8 6 7 10 12 12 13 14 12 11 11 12 14 13 9 8 10 12 12 11 10 10 11 10 9 8 8 6 5 6 7 8 8 7 7 8 9 10 10
15 13 13 14 15 16 16 16 14 13 11 10 9 9 8 9 10 10 10 10 10 10 11 11 11 11 10 11 13 13 12 12 11 11 10 9 9 10 11 10 11 13 13 11 9 7 7 11 13 10 8 11 14 13 10 8 9 12 11 9 9 8 6 5 5 5 6 6 6 8 9 10 11 11
15 15 15 15 15 16 16 15 14 13 12 10 10 9 9 10 11 11 11 11 12 12 12 12 13 13 13 14 15 16 16 15 14 14 13 12 12 12 12 12 13 13 12 9 8 5 2 6 10 9 8 10 13 14 11 8 11 14 13 11 9 7 6 5 3 3 4 4 5 7 9 10 11 12
16 16 16 16 16 16 16 15 15 14 13 11 10 10 10 11 12 11 12 13 14 14 14 14 14 15 16 17 18 18 17 17 16 16 16 15 14 13 14 15 14 13 11 9 8 7 4 3 7 7 7 9 9 11 12 11 13 15 13 11 10 7 5 5 3 3 3 4 6 8 9 11 12 13
17 17 17 17 17 16 15 15 15 14 13 12 11 11 12 12 12 11 12 14 16 17 17 15 16 18 18 19 19 18 18 17 17 16 16 17 16 14 14 15 13 11 10 9 8 8 7 6 5 5 6 8 6 7 9 10 12 15 13 10 8 7 5 5 4 4 5 6 7 9 11 12 13 14
19 19 18 17 17 17 16 16 15 15 14 13 13 13 13 12 11 11 12 14 16 17 17 16 18 19 19 19 19 17 17 17 17 16 15 16 16 13 11 11 12 11 9 8 8 7 7 7 6 3 2 4 4 5 7 8 10 14 13 9 7 6 5 5 5 5 6 7 9 11 13 14 15 16
17 17 16 15 16 17 18 17 17 16 15 14 14 14 13 13 13 13 13 13 15 16 17 18 19 19 19 18 18 16 16 17 17 15 13 12 12 10 8 9 12 12 10 8 8 7 6 5 4 2 0 1 2 3 5 6 9 11 11 9 8 6 4 4 4 6 7 8 10 12 13 15 16 16
17 16 16 17 17 18 18 18 18 17 16 16 15 15 15 15 16 15 14 15 16 17 18 19 20 20 19 18 17 17 17 17 15 12 9 8 8 8 7 9 11 11 10 9 8 6 5 4 2 1 0 0 1 2 4 5 7 9 9 7 7 5 4 4 5 6 6 8 10 12 13 14 14 14
18 18 18 18 19 19 19 19 18 18 18 19 19 18 18 18 17 16 15 16 17 18 18 20 20 19 19 18 17 17 17 15 13 10 7 7 8 7 7 8 10 10 9 8 8 6 4 3 2 2 1 2 3 4 3 3 5 7 7 6 5 5 4 5 5 6 7 8 10 12 14 14 14 12
19 19 19 19 19 20 19 19 18 18 19 20 21 21 20 19 18 17 16 16 17 18 18 19 20 19 18 18 18 17 15 13 11 9 8 9 9 8 7 8 10 9 8 8 7 5 4 3 2 2 2 2 2 1 2 2 3 6 6 5 5 5 5 6 7 7 8 9 10 12 15 16 16 14
19 19 20 20 20 20 19 18 18 18 19 21 22 23 23 20 19 19 17 16 16 17 18 19 19 18 17 17 17 16 13 10 11 11 10 11 9 8 8 9 10 10 8 7 6 5 4 3 1 1 1 1 0 1 2 2 3 4 5 5 6 7 7 8 9 10 10 11 12 14 16 18 19 19
18 18 19 18 19 19 19 19 19 18 19 20 22 22 22 21 20 19 17 15 15 16 17 18 18 18 17 17 16 14 11 10 11 12 11 10 9 8 9 10 11 10 9 7 6 5 3 2 1 1 0 0 0 1 3 5 4 5 5 6 6 7 7 9 11 13 14 14 15 17 19 21 22 22
17 18 17 17 17 18 19 19 19 19 19 20 20 20 20 19 18 17 16 15 15 16 18 19 20 19 18 16 15 14 12 10 10 9 9 9 8 8 10 12 12 11 9 8 6 5 3 2 1 0 0 0 1 1 3 4 4 4 5 5 5 6 8 10 13 15 17 18 19 20 22 23 25 25
14 16 16 16 17 18 19 19 19 19 20 20 19 19 18 17 16 15 15 15 16 17 20 22 22 20 18 16 15 14 11 8 6 6 7 8 8 9 11 13 13 11 10 8 7 5 4 3 3 2 1 0 1 2 3 4 4 4 3 4 5 7 9 11 14 17 19 20 21 22 23 25 26 26
12 13 14 15 17 18 19 19 19 20 20 19 17 16 15 14 14 14 14 16 17 19 21 23 22 20 19 18 15 12 8 5 5 5 6 7 8 9 11 13 13 11 10 9 7 6 5 4 4 2 1 1 2 3 4 4 4 4 4 4 5 7 9 11 14 17 19 21 22 23 25 26 27 26
12 13 13 14 16 17 18 19 20 20 19 18 15 13 12 11 12 14 15 16 18 21 23 23 22 21 20 17 13 9 6 6 7 7 7 7 9 11 12 13 12 11 10 8 7 6 5 5 4 3 2 3 3 4 4 5 5 6 5 5 5 6 8 10 13 16 19 21 21 23 24 25 25 25
12 13 13 13 15 16 17 18 19 19 18 16 14 13 12 13 14 15 16 18 20 22 23 23 22 20 17 12 9 8 7 7 8 8 9 9 10 13 14 13 11 10 9 7 7 6 6 5 4 4 4 4 5 5 5 6 7 8 8 7 7 8 9 10 13 15 17 18 18 19 20 19 17 16
11 11 12 12 13 14 16 17 18 18 17 16 14 14 14 16 17 18 20 22 23 23 23 22 19 15 12 10 9 8 7 7 8 9 10 11 12 14 14 12 10 9 7 7 7 6 5 5 5 5 5 6 6 6 7 7 7 8 10 11 12 13 14 15 15 15 16 16 15 15 15 15 14 14
11 11 12 12 12 14 15 16 17 17 16 16 16 17 18 19 20 21 22 23 23 23 21 19 15 12 11 10 10 9 8 7 8 9 10 11 11 12 12 11 9 8 7 7 6 5 5 5 6 6 6 6 7 8 8 8 8 9 11 12 14 16 17 18 19 20 19 17 14 13 14 15 16 18
11 11 12 12 13 14 15 16 16 17 16 17 19 21 21 21 22 22 22 21 21 19 17 15 13 12 12 11 10 10 9 9 9 9 10 11 11 10 10 9 8 7 7 6 5 4 4 5 6 6 6 6 6 7 7 8 9 10 11 12 14 15 16 18 19 21 23 21 18 15 16 17 17 19
Wind_Direction
278 281 282 284 285 287 288 289 293 289 279 274 272 257 236 231 230 229 245 239 229 227 222 219 218 217 218 219 213 211 213 213 210 204 197 198 199 192 188 192 199 202 196 194 194 194 202 197 183 177 180 169 149 133 127 118 128 137 133 132 134 132 130 129 128 128 127 124 122 118 113 105 102 102
278 279 279 281 284 287 291 295 300 303 300 287 280 279 264 247 234 223 244 256 238 221 218 224 224 218 214 214 212 212 212 213 211 205 198 198 195 186 184 189 191 188 184 182 179 171 158 156 163 169 195 197 172 146 130 129 132 142 149 148 139 131 129 130 129 129 128 124 121 115 110 106 104 105
273 275 273 277 285 291 292 296 304 308 308 301 294 294 274 248 239 238 237 251 250 229 221 228 230 224 218 214 212 211 211 211 210 205 200 198 193 187 186 188 186 184 185 183 177 168 153 147 161 173 207 218 187 161 142 143 143 152 160 151 138 129 127 128 127 126 125 121 118 115 111 105 101 104
272 270 270 279 288 295 296 298 308 316 307 291 284 282 268 252 249 245 235 229 244 236 233 234 230 224 222 216 211 209 208 208 208 205 202 199 193 190 191 191 187 185 188 188 182 174 164 162 173 185 201 214 191 176 169 165 128 140 159 150 142 138 133 132 131 129 128 124 122 120 116 110 106 108
273 264 272 288 285 282 292 303 313 316 294 265 260 263 261 258 257 243 228 226 234 234 235 232 223 218 217 214 211 209 207 205 204 201 200 201 197 194 195 196 193 190 192 192 191 187 183 181 186 198 207 204 198 195 197 193 129 127 164 157 151 149 144 143 140 136 134 129 124 122 122 124 121 117
270 264 277 288 270 271 290 303 310 308 295 265 255 256 255 255 255 242 227 227 229 222 216 213 212 211 210 209 210 210 208 204 201 199 198 199 199 197 198 201 199 197 196 195 199 203 200 199 205 216 224 218 214 218 215 209 195 164 172 161 157 158 156 153 147 139 136 131 125 123 124 128 128 124
265 267 280 269 253 276 296 298 296 291 281 269 258 260 260 256 254 243 230 229 227 213 203 208 210 207 206 208 210 210 208 205 202 200 198 197 198 198 200 205 205 203 202 200 203 211 210 210 220 234 246 233 229 236 229 218 221 201 176 164 160 161 160 159 153 145 139 133 129 127 126 127 132 132
261 264 269 264 264 276 286 289 288 285 274 261 251 254 259 258 256 248 235 231 229 219 207 210 215 211 207 208 208 204 203 204 204 202 199 198 199 199 201 207 209 209 208 207 209 217 219 222 231 244 257 242 233 235 222 213 216 197 178 171 165 166 167 165 163 153 142 137 134 133 130 130 136 136
260 262 270 276 278 273 271 265 273 287 274 251 249 251 251 251 250 246 238 228 225 225 218 212 211 210 205 202 204 203 199 199 200 200 201 201 201 203 206 209 212 213 214 213 215 222 224 229 240 252 261 249 234 220 205 204 208 190 179 175 170 171 173 172 169 156 146 146 143 139 132 132 139 141
258 263 280 281 273 262 248 230 261 289 265 232 246 253 244 240 237 236 234 224 219 222 221 213 206 203 201 197 198 203 203 199 196 195 198 203 206 209 211 213 215 216 218 218 220 226 230 234 243 253 253 244 227 207 199 201 200 185 179 178 174 174 177 178 174 161 156 161 157 149 138 133 143 150
248 264 274 269 255 234 222 246 288 285 260 243 258 260 247 239 233 225 217 210 210 214 211 208 204 197 197 199 197 199 201 201 199 195 194 199 207 212 216 218 218 217 218 220 221 226 230 233 239 248 245 232 213 201 198 196 190 182 180 180 178 177 179 182 180 170 170 177 171 163 154 143 151 160
243 258 263 253 234 215 220 295 289 268 258 260 258 251 241 235 232 227 218 212 213 212 206 204 201 187 184 193 194 188 189 192 198 200 197 197 203 210 216 220 221 220 219 220 221 223 225 227 232 238 237 226 209 196 191 188 186 184 182 180 181 183 184 186 186 182 184 187 183 177 171 161 163 171
239 246 248 234 224 217 215 274 273 252 253 263 250 236 225 217 223 228 226 223 217 209 203 198 192 180 176 182 181 179 185 191 195 198 198 200 204 208 214 221 223 222 220 220 221 221 221 222 226 231 232 224 212 201 193 190 189 189 185 181 184 191 194 194 194 193 195 194 190 186 182 176 177 182
232 233 221 204 221 252 227 235 249 232 219 230 236 234 218 208 223 225 222 222 215 208 203 195 187 181 181 188 190 188 192 195 194 195 195 196 200 202 210 221 225 223 220 218 217 217 217 219 222 228 231 227 220 213 205 199 195 195 192 189 194 201 203 203 202 200 200 197 193 190 189 186 187 190
229 220 205 196 216 267 244 229 227 212 199 208 219 216 209 217 234 235 232 230 222 214 208 200 195 192 192 197 199 199 197 195 196 198 196 194 194 194 198 209 220 221 217 212 210 211 212 214 217 222 227 229 228 224 220 212 205 204 200 197 203 210 210 209 207 203 201 197 193 194 194 193 195 197
226 214 205 202 207 244 240 223 215 203 193 203 209 203 205 217 224 231 235 235 233 228 218 206 204 206 207 205 203 205 205 199 197 200 200 199 199 198 200 205 210 214 213 207 200 199 205 209 212 218 223 229 231 231 230 223 214 211 208 203 206 212 215 213 208 204 201 196 195 199 202 202 204 205
222 214 212 208 205 219 219 208 207 203 196 198 205 210 220 222 220 222 220 219 235 242 232 223 220 220 220 217 215 216 214 204 198 198 200 205 206 207 209 212 209 204 204 198 181 167 184 203 205 207 218 231 237 239 237 231 222 215 211 208 208 211 213 212 208 204 201 198 199 205 207 209 210 210
223 222 224 221 212 207 204 200 201 201 197 197 204 213 216 207 204 204 191 182 193 211 223 232 235 232 231 233 234 230 224 217 211 208 209 211 211 211 212 213 206 194 190 189 174 136 132 179 181 164 170 210 232 239 239 231 222 217 213 211 210 209 209 208 207 204 200 200 204 208 209 211 211 209
224 222 222 220 209 201 200 201 201 201 201 201 205 205 197 184 181 177 169 158 141 145 171 193 206 213 221 230 235 232 229 228 227 227 227 221 212 206 200 191 186 181 175 181 177 133 122 158 149 116 113 132 146 173 193 198 207 211 211 211 211 208 206 205 203 200 197 199 203 204 206 207 205 204
216 215 215 210 203 202 202 200 201 202 202 203 203 194 176 165 164 154 144 137 129 132 134 130 142 153 175 203 210 213 220 224 225 225 222 213 203 188 161 139 153 162 159 170 177 146 129 147 136 108 104 117 113 108 119 130 157 190 198 200 201 200 198 195 192 189 189 193 196 198 202 202 201 204
207 206 206 201 201 204 201 200 202 202 202 202 198 185 166 156 152 141 136 137 132 130 126 118 115 112 110 129 150 170 196 215 222 214 197 191 187 167 138 121 138 154 153 165 177 155 136 143 138 114 104 107 104 100 105 114 124 143 160 171 176 177 178 176 175 176 180 186 190 193 199 201 201 204
199 199 197 196 206 212 207 203 202 199 201 203 195 183 166 155 149 141 140 140 133 128 124 116 112 104 95 94 102 120 142 170 206 213 200 189 179 160 145 138 134 140 151 164 171 157 140 142 141 123 106 90 90 100 111 118 126 136 142 149 152 154 157 158 160 166 171 178 186 191 197 202 204 208
192 194 196 196 207 216 210 203 199 197 201 204 195 185 171 158 151 148 146 143 136 131 124 116 114 108 98 94 99 109 123 144 173 210 216 194 178 162 152 147 137 128 157 170 172 161 147 148 147 138 125 89 82 105 120 127 133 138 142 146 146 147 150 150 148 152 161 169 179 188 198 207 213 219
188 189 195 196 203 212 207 200 197 197 201 203 197 188 177 163 158 156 153 150 146 141 129 118 116 115 113 116 124 130 137 144 146 148 185 186 182 171 161 156 149 141 160 174 180 170 157 158 160 157 156 136 122 126 130 135 140 140 144 149 147 146 150 148 142 144 154 167 179 192 207 220 228 232
189 189 193 193 197 203 202 200 200 197 198 204 201 190 178 164 159 158 156 154 149 138 127 118 113 117 125 132 140 146 147 136 116 115 153 170 179 182 173 166 155 140 147 167 181 175 167 169 169 155 133 126 134 139 138 141 146 148 150 154 151 149 151 149 147 151 161 175 189 206 220 230 236 240
188 190 192 190 191 197 201 202 202 196 193 198 197 187 176 163 158 157 153 147 139 129 123 119 116 118 122 126 130 132 129 123 117 119 134 146 151 157 164 166 157 143 142 154 171 180 182 181 180 171 143 132 140 146 143 144 152 157 158 159 155 150 146 145 148 155 168 184 201 218 229 236 241 246
186 187 188 185 187 194 200 203 202 194 189 192 191 184 177 166 158 155 149 143 135 128 126 124 121 120 121 120 118 117 114 113 115 116 117 123 133 135 136 139 138 134 132 139 155 180 198 191 190 198 187 160 153 152 150 153 165 167 166 164 161 151 142 143 148 159 175 195 214 227 236 240 245 252
188 186 185 185 187 193 197 200 199 191 186 187 186 182 177 169 163 157 150 142 136 132 133 130 122 118 119 118 114 112 113 113 115 116 115 117 123 126 125 124 121 120 118 122 132 142 193 187 181 193 206 185 170 168 171 172 176 176 173 167 164 158 151 153 158 171 187 213 234 241 246 247 251 260
194 191 192 193 193 194 196 195 192 188 185 184 184 184 179 172 167 161 151 144 142 142 142 137 126 120 119 118 116 115 117 118 118 118 118 119 122 125 126 122 116 114 114 111 114 112 99 134 158 169 188 189 186 189 188 180 177 180 179 174 171 172 172 177 188 207 221 240 249 252 255 256 261 270
202 200 201 202 201 199 197 193 190 187 184 182 182 184 185 177 170 163 157 153 152 151 148 140 130 125 123 122 121 123 124 123 122 123 123 124 124 124 123 119 114 113 114 111 112 111 106 115 130 146 176 187 197 207 201 189 180 179 182 185 184 185 192 200 212 234 249 258 260 262 264 267 271 278
207 206 205 206 205 200 194 191 190 189 187 185 182 183 187 182 171 165 165 163 157 153 150 142 134 130 129 128 128 131 131 129 128 130 129 125 124 124 124 123 121 120 119 119 121 115 107 115 118 106 172 209 224 224 213 203 189 184 186 191 196 204 214 215 225 249 261 263 265 267 270 274 278 282
204 203 200 198 196 192 187 184 185 186 187 185 182 185 187 180 172 170 170 165 158 156 154 148 140 136 136 137 137 139 138 134 133 133 126 120 127 136 140 138 136 135 131 127 124 117 108 114 118 97 69 268 278 243 215 200 193 195 197 198 204 222 239 236 246 264 267 263 267 273 276 280 284 286
193 190 188 186 182 180 178 176 177 181 183 182 184 188 186 179 176 175 172 167 163 164 162 155 147 144 144 143 144 145 141 137 137 136 126 125 142 155 159 154 150 149 144 133 124 119 112 106 94 73 77 45 87 166 185 186 191 199 202 203 211 228 248 256 262 273 272 267 272 278 282 286 291 293
189 183 180 179 178 177 176 176 178 182 183 182 184 183 181 181 181 177 174 171 169 168 167 160 153 151 150 148 149 148 142 140 144 148 150 160 171 180 183 170 159 156 152 142 132 123 111 94 73 69 89 118 132 149 177 206 200 197 199 205 217 233 252 263 270 279 277 272 273 276 281 290 298 299
186 181 178 177 180 180 178 179 182 184 184 183 182 178 177 182 183 178 177 176 172 171 169 164 159 158 156 155 154 150 143 144 156 165 177 189 195 197 195 182 168 160 154 147 138 128 116 105 86 79 107 129 142 179 246 249 207 201 208 220 235 250 262 270 276 280 278 278 279 276 280 292 300 304
185 183 183 182 180 176 176 179 182 182 183 182 180 176 175 179 183 183 182 180 179 178 174 167 166 167 164 159 156 151 147 156 172 181 192 201 202 197 191 183 173 163 155 147 140 130 124 128 125 75 102 124 330 307 289 268 235 223 231 245 257 266 274 279 282 284 285 288 287 282 282 289 296 302
185 184 186 184 178 174 176 179 179 179 180 179 177 176 177 180 184 187 186 185 185 185 179 174 174 173 168 161 156 152 155 169 178 186 196 201 200 195 187 178 170 164 157 147 140 135 134 156 217 295 38 103 273 288 287 284 274 256 252 259 269 275 282 287 289 293 296 294 289 286 285 286 290 298
187 183 183 181 177 176 176 175 175 175 175 174 174 176 180 183 185 189 194 195 192 187 185 183 179 173 169 164 158 153 155 163 170 181 195 198 196 193 186 176 168 164 158 149 144 147 153 167 196 250 80 225 236 284 303 304 302 286 271 270 278 288 295 297 296 298 300 298 294 292 290 287 289 295
188 184 182 180 178 177 175 174 175 175 173 173 176 178 180 183 186 191 198 199 193 189 186 181 175 169 165 160 155 152 152 158 166 178 191 196 198 196 188 177 168 162 158 154 151 151 153 150 140 122 107 123 272 294 300 298 300 304 297 289 291 298 302 303 301 300 301 301 301 300 297 294 294 296
183 182 182 180 178 177 176 175 176 175 173 174 178 179 180 185 189 192 194 192 187 183 179 173 168 163 158 156 159 160 159 164 175 182 191 202 205 198 187 178 170 166 165 162 160 160 161 160 159 158 165 248 275 285 287 281 276 287 299 298 296 300 303 304 303 302 303 305 305 303 299 299 299 300
177 175 176 178 177 176 177 177 176 175 175 176 177 177 181 187 190 188 185 182 177 172 168 165 161 158 156 159 164 163 154 164 181 190 201 210 204 190 183 178 175 174 173 173 174 178 179 180 188 209 234 256 268 274 276 273 274 285 296 294 290 297 301 302 303 303 303 307 307 302 299 301 302 301
169 167 169 174 176 176 177 178 178 177 177 178 177 177 178 180 180 175 169 168 167 165 163 160 158 158 159 160 157 151 155 178 195 201 206 205 194 183 181 182 183 182 183 185 189 191 194 204 218 234 247 257 262 264 270 278 285 294 301 298 292 293 295 298 302 302 302 306 309 306 305 306 304 298
159 160 163 170 176 177 177 179 180 180 179 178 177 175 171 167 164 162 161 162 163 162 159 157 158 160 158 152 152 159 176 198 207 203 200 198 193 187 184 184 185 187 189 190 192 198 210 224 233 243 250 255 259 267 278 290 297 301 304 303 302 302 301 302 303 302 300 302 304 305 307 308 302 297
157 160 162 168 174 177 178 179 180 180 179 176 172 168 161 156 156 158 160 161 160 159 159 160 160 159 154 154 165 181 193 202 203 198 192 189 189 189 187 184 184 187 188 187 193 207 223 233 240 246 252 259 268 274 282 293 300 302 303 305 307 309 310 310 310 309 309 309 308 306 305 303 298 296
159 159 159 163 169 172 175 177 176 175 174 171 165 160 155 154 156 158 160 160 161 161 163 163 160 158 162 172 186 193 192 188 186 185 183 181 181 184 186 185 184 185 185 189 200 215 226 238 248 255 262 273 281 286 290 299 304 306 308 309 311 314 316 317 318 318 317 317 321 322 315 308 302 298